Regional Weather Roundup
Issued by NWS

Home | Current Version | Previous Version | Text Only | Print | Product List | Glossary Off
Versions: 1 2 3 4 5 6 7 8 9 10 11 12 13 14 15 16 17 18 19 20 21 22 23 24 25 26 27 28 29 30 31 32 33 34 35 36 37 38 39 40 41 42 43 44 45 46 47 48 49 50

000
ASUS43 KTOP 041208
RWRKS

WEATHER ROUNDUP FOR KANSAS
NATIONAL WEATHER SERVICE GOODLAND KS
700 AM CDT TUE AUG 04 2015

NOTE:  "FAIR" INDICATES FEW OR NO CLOUDS BELOW 12,000 FEET WITH NO
SIGNIFICANT WEATHER AND/OR OBSTRUCTIONS TO VISIBILITY.

KSZ001>006-013>018-027>032-041>047-041300-
NORTHWEST KANSAS

CITY           SKY/WX    TMP DP  RH WIND       PRES   REMARKS
GOODLAND       CLEAR     66  61  84 SW7       29.97R
6HR MIN TEMP:  64; 6HR MAX TEMP:  69;

HAYS           MOCLDY    70  61  73 S8        29.93S
HILL CITY      MOCLDY    70  65  84 CALM      29.93R
6HR MIN TEMP:  69; 6HR MAX TEMP:  78;

RUSSELL        MOCLDY    71  68  90 S8        29.92R
6HR MIN TEMP:  71; 6HR MAX TEMP:  78;

$$

KSZ061>065-074>080-084>089-041300-
SOUTHWEST KANSAS

CITY           SKY/WX    TMP DP  RH WIND       PRES   REMARKS
DODGE CITY     MOCLDY    69  66  90 S14       29.96R
6HR MIN TEMP:  69; 6HR MAX TEMP:  73;

ELKHART          N/A     65  59  81 W7          N/A
GARDEN CITY    MOCLDY    68  62  81 SW8       29.96R
6HR MIN TEMP:  67; 6HR MAX TEMP:  74;

GREAT BEND     CLOUDY    72  64  78 S6        29.94R
LIBERAL        CLOUDY    70  63  78 SE6       29.97R
PRATT          CLOUDY    70  64  83 S13       29.95S
$$

KSZ066>073-081>083-090>101-041300-
SOUTHEAST KANSAS

CITY           SKY/WX    TMP DP  RH WIND       PRES   REMARKS
CHANUTE        CLOUDY    70  67  90 E7        29.97R
6HR MIN TEMP:  68; 6HR MAX TEMP:  72;

COFFEYVILLE    MOCLDY    70  68  93 CALM      29.95R
6HR MIN TEMP:  68; 6HR MAX TEMP:  72;

HUTCHINSON     CLOUDY    74  68  81 S8        29.94R
6HR MIN TEMP:  73; 6HR MAX TEMP:  78;

MEDICINE LODGE   N/A     72  66  81 SW10      29.94F
NEWTON         CLOUDY    73  63  68 S8        29.97R
PARSONS        CLOUDY    69  68  96 E3        29.97R
6HR MIN TEMP:  66; 6HR MAX TEMP:  69;

WICHITA INTL   CLOUDY    74  68  81 S8        29.94S
6HR MIN TEMP:  73; 6HR MAX TEMP:  76;

WICHITA JABRA  CLOUDY    76  67  73 S9        29.94R
6HR MIN TEMP:  74; 6HR MAX TEMP:  77;

WICHITA MCCONL CLOUDY    74  66  76 S9        29.95R
$$

KSZ007>012-019>026-033>040-048>060-102>105-041300-
NORTHEAST KANSAS

CITY           SKY/WX    TMP DP  RH WIND       PRES   REMARKS
CONCORDIA      CLOUDY    70  70 100 E5        29.96R FOG
6HR MIN TEMP:  69; 6HR MAX TEMP:  74;

EMPORIA        CLOUDY    70  67  90 SE5       29.96R
6HR MIN TEMP:  69; 6HR MAX TEMP:  74;

LAWRENCE       CLOUDY    71  68  90 SE6       29.97R
6HR MIN TEMP:  70; 6HR MAX TEMP:  74;

MANHATTAN      CLOUDY    72  70  93 NE3       29.95R
6HR MIN TEMP:  71; 6HR MAX TEMP:  77;

MARYSVILLE     PTCLDY    70  68  94 SE6       29.95R
OLATHE IND     CLOUDY    72  69  90 E7        29.99R
6HR MIN TEMP:  71; 6HR MAX TEMP:  76;

OLATHE EXE     CLOUDY    71  68  90 E6        29.97R
6HR MIN TEMP:  71; 6HR MAX TEMP:  75;

SALINA         CLOUDY    72  67  84 S5        29.93R
6HR MIN TEMP:  72; 6HR MAX TEMP:  79;

TOPEKA BILLARD CLOUDY    72  71  97 SE5       29.97R
6HR MIN TEMP:  72; 6HR MAX TEMP:  75;

TOPEKA FORBES  CLOUDY    73  68  84 E5        29.97R
6HR MIN TEMP:  72; 6HR MAX TEMP:  77;

$$



USA.gov is the U.S. government's official web portal to all federal, state and local government web resources and services.